Wind_Speed
33 32 31 30 29 29 27 26 26 24 24 26 26 24 23 23 22 21 20 17 15 14 13 14 15 15 14 13 11 10 9 7 6 4 2 0 2 3 4 5 6 8
33 32 30 29 29 28 26 26 26 25 26 27 26 23 22 22 21 19 18 16 14 13 13 15 16 15 14 13 11 10 9 7 5 3 1 1 2 3 4 5 7 8
32 31 30 30 29 28 26 26 26 27 27 26 24 21 21 23 21 19 19 16 14 14 15 17 16 16 14 13 12 10 8 7 4 3 1 1 2 3 5 6 8 9
32 31 30 29 28 27 26 26 28 28 27 25 23 21 21 22 22 22 21 17 15 16 17 18 17 15 14 13 12 10 8 6 4 2 1 2 2 4 5 6 8 9
31 30 29 29 28 28 27 28 29 28 26 25 23 21 21 21 21 22 20 17 16 18 19 19 17 16 15 13 11 9 7 5 4 3 2 2 3 4 5 6 8 9
31 30 30 29 29 29 29 29 29 28 26 26 25 24 23 22 21 20 18 17 18 20 21 19 18 16 15 12 10 9 7 6 5 3 2 2 3 4 5 7 8 10
32 31 30 29 29 29 29 29 30 29 27 27 26 26 26 24 23 20 18 19 21 22 21 19 18 16 14 12 10 9 8 7 5 3 3 3 3 5 6 7 9 10
32 31 30 29 29 29 29 30 31 29 28 27 27 28 28 26 23 20 20 21 23 23 21 20 18 15 13 12 11 10 8 7 5 4 3 3 3 5 7 8 10 11
31 30 30 29 29 30 32 32 31 29 28 27 28 30 29 26 22 21 22 23 24 23 21 20 17 15 14 13 12 10 9 7 6 5 3 3 4 6 8 9 10 11
30 29 29 29 30 33 33 31 30 29 28 28 30 31 27 24 23 23 24 25 25 23 21 19 17 16 15 14 12 11 9 8 6 4 3 4 5 7 9 10 10 11
30 29 29 30 31 32 31 30 31 30 29 29 30 28 25 24 24 25 26 26 24 23 21 19 18 17 15 14 13 11 10 8 6 4 4 5 6 8 9 10 10 11
29 28 29 29 29 29 29 30 32 30 29 29 27 25 25 26 26 27 27 26 24 23 21 20 19 17 16 14 13 12 10 8 6 6 5 6 7 8 9 10 11 12
28 27 27 27 27 28 30 31 31 29 27 27 26 26 27 27 28 29 28 26 25 23 22 20 19 17 16 15 14 12 10 8 7 6 6 7 8 8 9 10 12 13
25 25 26 26 26 27 28 29 29 28 28 27 28 28 28 28 29 30 28 27 25 24 22 21 19 17 16 15 14 11 10 9 7 6 6 7 8 8 10 11 13 14
23 24 25 25 25 25 27 28 29 29 30 30 29 29 29 29 30 29 28 28 26 24 22 21 19 18 17 15 13 11 10 9 7 6 6 7 8 9 10 12 13 14
23 25 25 26 26 28 30 30 31 31 31 30 30 30 30 31 30 30 28 27 25 24 23 21 20 19 17 15 13 12 10 8 7 6 7 7 8 9 11 12 13 15
27 28 29 29 30 31 31 30 30 31 31 30 31 31 32 32 31 30 28 26 25 23 22 21 20 19 17 15 14 12 9 8 7 7 7 7 8 10 11 12 14 15
30 31 31 31 31 30 29 29 29 30 30 30 32 32 33 33 31 30 28 26 25 23 22 21 20 18 17 15 13 11 9 8 7 6 7 7 9 10 11 13 14 16
28 29 29 29 29 28 28 29 29 30 30 31 33 33 33 33 31 29 28 26 25 24 23 21 20 18 17 15 13 11 9 8 7 6 7 8 9 10 12 13 15 17
26 28 28 28 28 28 28 29 29 30 31 32 33 34 34 33 31 30 28 27 25 24 23 22 20 18 17 15 12 10 9 7 6 6 7 8 9 11 13 15 17 18
25 26 27 27 27 28 28 29 29 31 32 33 34 34 34 32 31 30 29 27 26 24 23 22 20 18 16 14 12 10 8 7 6 6 7 8 10 12 14 16 18 19
25 26 26 27 27 28 29 30 31 32 34 35 35 35 34 32 31 30 28 27 26 25 23 22 20 18 16 13 12 10 8 7 6 6 7 9 11 13 15 17 19 20
26 26 26 27 28 29 30 31 33 34 35 36 36 36 34 33 31 30 28 27 26 25 23 22 20 18 15 13 11 9 8 7 6 6 8 10 11 14 16 18 20 20
27 27 28 28 29 30 31 32 34 35 36 37 37 35 34 33 32 30 29 28 26 24 23 22 20 17 15 13 11 9 7 6 6 7 9 11 13 15 17 19 20 20
28 29 29 29 30 31 32 34 35 37 38 38 37 35 34 33 32 31 30 28 27 25 24 22 20 17 15 13 11 9 7 6 7 8 10 12 14 16 18 19 19 19
30 30 30 31 31 33 34 35 37 38 39 38 37 36 34 33 32 31 30 28 27 26 24 22 20 17 15 13 10 8 6 6 7 9 11 13 16 17 18 18 18 18
Wind_Direction
235 234 236 236 237 239 239 238 239 238 239 242 245 244 241 240 240 241 242 235 218 208 206 204 203 199 192 187 182 177 169 162 159 159 155 125 326 332 336 338 346 347
235 234 234 234 234 235 234 234 235 235 237 241 246 244 237 234 235 239 240 227 207 203 199 195 194 190 186 183 178 173 167 166 168 172 183 306 317 329 341 344 345 342
234 233 233 232 232 230 229 229 229 232 235 239 243 239 229 227 229 233 234 223 205 200 195 191 192 187 184 181 176 172 170 173 181 188 226 299 316 333 343 342 340 337
232 233 232 232 231 228 226 226 227 231 234 236 238 235 229 226 224 224 225 217 201 198 194 191 192 188 183 179 176 176 177 181 196 205 236 288 315 333 337 336 335 333
232 232 232 230 228 226 226 227 230 234 234 232 230 229 230 230 227 221 216 207 197 196 194 192 192 187 182 181 178 180 184 191 206 211 240 285 310 323 329 331 331 329
231 231 231 230 227 226 227 228 231 236 234 227 222 224 227 229 230 220 206 199 197 196 194 193 191 186 183 183 183 186 192 201 210 215 247 279 301 316 324 328 327 326
231 231 230 230 227 226 228 228 230 234 230 222 218 220 223 227 226 213 199 197 197 195 194 193 190 187 186 187 188 194 198 202 212 222 244 270 296 313 321 323 322 322
232 232 231 229 226 225 226 228 229 229 224 218 216 218 222 225 220 205 197 198 196 195 194 191 190 189 189 192 194 200 203 205 214 223 238 266 294 310 316 317 317 316
232 232 230 228 223 221 223 226 227 224 220 216 215 218 222 221 212 201 198 197 194 195 194 191 191 190 192 197 198 201 206 209 215 221 237 269 293 306 311 311 312 313
231 230 228 225 220 219 223 224 221 220 219 215 215 219 218 211 205 200 199 196 194 195 194 192 193 194 196 200 200 203 207 210 215 224 244 273 291 301 306 306 308 311
232 230 226 223 220 220 221 217 215 219 219 215 216 216 210 206 204 199 196 196 195 195 195 194 195 197 201 202 203 206 208 210 217 228 245 271 289 296 301 304 307 310
230 226 221 219 218 216 214 211 213 219 217 214 215 212 207 205 202 197 195 195 195 196 196 196 197 199 202 204 206 208 208 210 217 229 249 273 288 294 299 304 308 310
222 218 215 215 213 209 209 211 214 216 216 215 215 211 206 203 200 197 195 194 196 196 196 198 200 202 204 206 208 208 209 213 220 235 260 277 286 294 300 306 310 312
214 210 209 211 211 208 208 211 212 214 216 217 213 207 204 202 200 197 194 194 196 196 196 199 201 204 207 209 208 208 210 216 227 244 265 277 286 297 303 308 312 313
208 207 208 211 212 210 209 211 214 216 216 213 208 203 201 199 198 198 198 198 196 196 198 200 203 207 209 208 207 209 213 221 235 252 267 278 289 299 306 310 313 314
210 210 211 211 210 211 213 215 215 213 209 205 202 200 198 196 197 199 200 200 199 198 200 203 206 208 207 207 208 211 217 226 240 255 268 282 294 302 308 311 313 315
213 213 214 214 214 214 214 213 210 206 203 200 199 198 196 196 199 200 199 200 201 202 204 207 208 207 206 208 210 212 219 228 241 257 270 286 298 305 310 312 315 317
215 216 216 216 214 212 210 207 205 202 201 200 198 197 197 198 200 201 200 200 201 204 208 209 208 207 208 210 212 214 221 229 242 259 275 290 300 306 311 314 317 319
214 213 212 210 208 206 206 204 203 202 201 201 200 199 199 200 200 201 201 202 204 207 209 209 208 208 209 211 213 216 222 232 246 264 279 293 303 310 315 318 320 320
210 208 205 204 204 204 205 204 204 203 203 202 201 201 202 202 202 202 203 205 208 209 211 210 208 208 210 212 214 218 225 236 252 269 286 299 308 314 319 321 321 320
205 204 203 203 205 206 207 206 206 206 204 203 204 205 205 205 204 205 206 207 210 211 211 211 210 209 210 212 216 221 229 241 257 276 293 304 311 317 321 320 319 318
205 205 205 206 208 210 211 210 208 207 206 206 206 206 206 206 206 207 209 211 212 212 211 212 212 210 210 214 219 224 233 246 263 284 298 307 314 319 320 318 317 317
209 210 211 213 214 215 214 213 211 209 208 208 208 208 207 207 207 208 211 213 215 214 213 214 214 211 211 215 221 227 238 253 272 291 300 310 317 319 319 316 315 314
216 217 218 219 219 219 218 215 213 212 211 211 211 210 209 209 209 211 212 213 214 215 215 216 215 213 212 215 221 231 244 261 282 297 306 314 317 317 315 312 311 312
223 222 223 223 223 222 220 217 216 214 212 212 211 211 212 211 212 213 214 214 213 214 215 216 216 215 214 216 223 235 250 271 290 302 310 314 313 312 310 309 310 312
228 227 227 226 225 223 221 218 217 215 213 212 211 212 213 213 214 215 215 216 216 216 216 216 217 217 217 219 226 238 257 278 292 301 307 308 307 306 306 306 308 312
Height
1537 1539 1541 1543 1545 1547 1549 1550 1552 1553 1554 1555 1556 1557 1559 1560 1561 1562 1563 1563 1564 1564 1565 1566 1567 1568 1569 1570 1570 1571 1572 1572 1573 1574 1574 1575 1575 1575 1575 1575 1575 1574
1533 1535 1537 1540 1541 1543 1545 1547 1549 1550 1551 1552 1553 1554 1556 1557 1558 1559 1560 1561 1562 1563 1563 1564 1565 1566 1567 1568 1569 1570 1570 1571 1572 1573 1573 1573 1574 1574 1574 1574 1573 1573
1529 1531 1533 1536 1537 1540 1542 1544 1546 1547 1548 1549 1550 1552 1553 1554 1556 1557 1558 1559 1560 1561 1562 1563 1564 1565 1566 1567 1568 1568 1569 1570 1571 1572 1572 1572 1573 1573 1572 1572 1572 1572
1525 1528 1530 1532 1534 1536 1538 1540 1542 1543 1545 1546 1547 1549 1550 1551 1553 1554 1555 1556 1557 1559 1560 1561 1562 1563 1564 1565 1566 1567 1568 1569 1570 1571 1571 1571 1571 1571 1571 1571 1571 1570
1522 1524 1527 1529 1531 1533 1535 1536 1538 1540 1542 1543 1545 1546 1547 1548 1549 1550 1552 1553 1555 1557 1558 1560 1561 1562 1563 1564 1565 1566 1567 1568 1569 1569 1570 1570 1570 1570 1570 1570 1569 1569
1519 1521 1523 1525 1527 1529 1531 1533 1535 1537 1539 1540 1542 1543 1545 1546 1547 1548 1549 1551 1553 1555 1557 1558 1559 1560 1561 1562 1563 1565 1566 1567 1567 1568 1568 1568 1569 1569 1568 1568 1568 1568
1515 1517 1519 1522 1524 1526 1528 1530 1532 1534 1535 1537 1539 1541 1542 1543 1544 1545 1547 1548 1551 1553 1555 1557 1558 1559 1560 1561 1562 1563 1564 1566 1566 1567 1567 1567 1567 1567 1567 1567 1567 1567
1512 1514 1516 1518 1520 1522 1525 1526 1528 1530 1532 1534 1536 1538 1539 1541 1542 1543 1544 1546 1549 1551 1553 1555 1556 1557 1558 1560 1561 1562 1563 1564 1565 1565 1566 1566 1566 1566 1566 1566 1565 1565
1509 1511 1512 1514 1517 1519 1521 1523 1524 1527 1529 1531 1533 1535 1536 1538 1539 1540 1542 1544 1547 1549 1552 1553 1555 1556 1557 1558 1560 1561 1562 1563 1563 1564 1564 1564 1564 1564 1564 1564 1564 1563
1505 1507 1509 1511 1513 1515 1517 1519 1522 1524 1526 1528 1530 1532 1533 1535 1536 1538 1540 1542 1545 1547 1549 1551 1553 1554 1556 1557 1558 1559 1560 1561 1561 1562 1562 1562 1562 1562 1562 1562 1562 1562
1502 1504 1505 1507 1510 1512 1514 1517 1519 1521 1523 1526 1527 1529 1531 1532 1534 1535 1538 1540 1543 1545 1547 1549 1551 1553 1554 1555 1556 1557 1558 1559 1559 1560 1560 1560 1560 1560 1560 1560 1560 1560
1498 1500 1502 1504 1507 1509 1512 1515 1517 1519 1521 1523 1525 1527 1528 1530 1531 1533 1536 1538 1541 1543 1545 1547 1549 1551 1552 1553 1554 1555 1556 1556 1557 1558 1558 1558 1558 1558 1558 1558 1558 1558
1495 1498 1500 1503 1505 1508 1511 1513 1515 1517 1519 1521 1523 1525 1526 1528 1529 1532 1534 1537 1539 1541 1543 1546 1547 1549 1550 1551 1552 1553 1554 1554 1555 1555 1556 1556 1556 1556 1556 1556 1555 1555
1493 1496 1499 1501 1503 1506 1508 1510 1513 1515 1517 1519 1521 1522 1524 1526 1528 1530 1532 1535 1537 1539 1541 1543 1545 1547 1548 1549 1550 1551 1551 1552 1553 1553 1553 1553 1553 1553 1553 1553 1553 1553
1492 1494 1497 1499 1501 1503 1506 1508 1511 1513 1515 1517 1519 1520 1523 1525 1527 1529 1531 1533 1535 1537 1539 1541 1543 1545 1546 1547 1548 1549 1549 1550 1550 1551 1551 1551 1551 1551 1551 1551 1551 1550
1491 1493 1495 1497 1500 1502 1504 1506 1508 1510 1512 1514 1516 1519 1521 1523 1526 1528 1530 1531 1533 1535 1537 1539 1541 1543 1544 1545 1546 1547 1548 1548 1548 1549 1549 1549 1549 1549 1549 1549 1548 1548
1489 1492 1494 1496 1498 1500 1502 1504 1506 1508 1510 1512 1515 1517 1520 1522 1524 1526 1528 1530 1531 1533 1535 1537 1539 1541 1542 1543 1544 1545 1546 1546 1546 1547 1547 1547 1547 1547 1547 1546 1546 1546
1487 1489 1491 1493 1495 1497 1500 1502 1504 1506 1508 1511 1513 1515 1518 1520 1523 1524 1526 1528 1530 1532 1534 1536 1537 1539 1540 1541 1542 1543 1543 1544 1545 1545 1545 1545 1545 1545 1545 1544 1544 1544
1484 1486 1488 1491 1493 1496 1498 1500 1502 1505 1507 1509 1512 1514 1516 1519 1521 1522 1524 1526 1528 1530 1532 1533 1535 1537 1538 1539 1540 1541 1541 1542 1542 1543 1543 1543 1543 1543 1543 1542 1542 1541
1482 1484 1486 1489 1492 1494 1497 1499 1501 1503 1506 1508 1510 1512 1515 1516 1518 1520 1522 1524 1526 1528 1530 1531 1533 1535 1536 1537 1538 1538 1539 1539 1540 1540 1540 1541 1541 1540 1540 1540 1539 1538
1480 1482 1485 1488 1490 1493 1495 1497 1500 1502 1504 1507 1509 1511 1513 1515 1516 1518 1520 1522 1524 1526 1527 1529 1531 1533 1534 1535 1535 1536 1536 1537 1538 1538 1538 1538 1538 1538 1538 1537 1536 1536
1479 1481 1484 1486 1489 1491 1493 1495 1498 1500 1502 1505 1507 1509 1511 1513 1515 1516 1518 1520 1522 1523 1525 1527 1529 1531 1532 1532 1533 1533 1534 1535 1535 1535 1536 1536 1536 1535 1535 1534 1534 1533
1478 1480 1482 1485 1487 1489 1491 1493 1495 1498 1500 1502 1504 1506 1508 1510 1512 1514 1516 1518 1519 1521 1523 1525 1527 1528 1529 1530 1530 1531 1532 1532 1532 1533 1533 1533 1533 1533 1532 1532 1532 1531
1477 1479 1481 1483 1485 1487 1489 1491 1493 1495 1497 1499 1501 1504 1506 1508 1510 1512 1513 1515 1517 1519 1521 1522 1524 1526 1527 1527 1528 1528 1529 1529 1530 1530 1531 1531 1530 1530 1530 1530 1529 1528
1475 1477 1479 1481 1483 1485 1486 1488 1490 1492 1495 1497 1499 1502 1504 1506 1507 1509 1511 1513 1515 1517 1518 1520 1522 1523 1524 1525 1525 1526 1526 1527 1528 1528 1528 1528 1528 1528 1528 1527 1527 1526
1473 1475 1477 1478 1480 1482 1484 1486 1488 1490 1492 1494 1496 1499 1501 1503 1505 1507 1509 1511 1512 1514 1516 1518 1519 1520 1521 1522 1523 1523 1524 1524 1525 1525 1525 1525 1525 1526 1525 1525 1524 1523